Theta_e
321 320 321 321 323 322 322 321 321 321 323 323 323 323 325 325 322 321 322 323 323 324 324 322 322 323 325 327 326 325 325 325 323 321 320 321 318 318 322 322 322 323 322 321 320 315 313 309 311 317 319 318 318 319 322 324 325 324 325 326 327 327 326
322 322 322 322 321 321 320 321 321 321 320 320 321 319 317 319 321 321 321 322 322 323 324 321 321 324 324 323 322 321 322 322 322 320 320 320 321 319 321 319 321 321 322 321 321 318 312 310 310 312 311 315 316 317 318 321 323 325 325 325 325 320 317
321 320 320 319 319 321 319 317 318 319 319 319 320 319 317 319 321 321 320 320 319 318 320 320 321 321 321 321 321 321 321 318 318 319 318 316 317 319 321 321 319 319 320 319 318 317 315 314 309 309 310 309 309 312 317 318 321 322 321 319 317 316 313
320 319 318 319 320 318 318 318 317 317 318 317 317 319 320 320 321 322 319 320 319 321 320 319 319 322 320 318 317 317 317 316 316 315 314 315 314 312 314 319 320 320 317 316 316 316 314 312 311 311 311 311 310 310 314 317 318 319 319 317 315 313 312
320 320 319 319 317 317 318 317 316 316 316 317 318 316 317 318 318 317 319 318 317 316 318 318 317 317 316 317 316 315 315 315 315 315 313 313 312 310 310 310 312 317 320 320 319 318 315 314 312 310 309 310 310 311 315 314 316 317 317 315 314 312 310
321 320 320 318 317 317 318 315 314 315 315 314 314 315 315 319 320 319 318 316 315 318 316 315 316 317 317 316 316 315 315 315 314 313 311 311 312 310 308 309 310 313 318 320 321 319 318 316 313 309 309 309 306 308 311 313 311 312 314 314 314 313 311
320 320 319 318 318 319 316 315 315 315 314 313 315 316 317 318 317 317 317 317 316 315 315 315 315 314 314 314 313 313 313 313 314 313 312 311 311 310 310 308 309 310 311 316 319 319 318 315 309 308 308 307 307 308 308 306 309 307 308 310 312 312 311
321 320 319 319 320 318 316 315 315 316 315 316 316 315 316 316 317 317 316 314 315 314 314 313 314 313 313 313 313 313 313 313 313 313 312 312 313 310 309 308 309 309 310 312 313 316 319 317 311 309 307 304 302 302 302 302 304 306 306 306 310 311 311
322 320 320 320 320 318 317 316 316 315 316 315 315 316 317 316 315 316 316 316 316 315 315 315 314 314 314 314 313 312 313 318 313 313 312 312 311 310 309 309 310 309 310 311 312 312 314 315 313 311 309 306 300 298 299 299 301 302 306 303 305 308 310
320 319 319 319 318 318 318 317 316 317 315 315 317 316 315 314 315 315 316 317 316 314 314 314 314 313 312 312 312 312 313 313 313 311 311 311 310 309 309 309 309 310 311 310 310 311 312 311 313 313 311 305 302 300 297 296 298 298 303 304 301 304 307
321 320 320 318 318 319 317 317 318 316 316 317 318 317 315 316 317 321 315 313 313 313 315 315 314 314 314 313 313 312 312 311 311 310 312 312 311 310 310 311 310 308 309 310 309 309 310 312 311 312 310 309 305 302 299 298 299 302 301 304 302 302 305
321 320 319 319 319 319 318 318 317 317 317 317 317 317 317 316 316 315 314 315 316 316 315 315 315 314 313 313 313 314 313 312 311 310 311 311 311 310 308 308 309 310 310 309 310 309 310 311 309 309 309 310 308 305 304 301 298 303 303 302 304 305 304
321 320 319 319 319 318 318 318 317 317 317 317 317 317 316 316 316 316 316 316 315 315 316 316 314 314 315 315 314 312 310 310 310 308 309 311 313 310 308 308 309 310 309 309 309 308 307 309 310 309 310 309 307 307 306 303 301 302 305 303 304 305 305
323 322 320 320 319 319 318 318 317 317 318 317 317 317 317 317 317 317 316 316 315 314 316 315 316 317 317 315 314 313 314 313 311 310 311 312 312 309 309 310 310 311 310 309 308 309 308 307 308 310 310 308 307 307 307 304 302 302 305 310 306 308 309
323 323 320 320 320 321 319 319 318 318 317 317 317 317 316 317 316 316 315 315 316 317 317 317 317 318 317 316 316 320 317 312 312 314 312 311 312 314 311 310 312 312 313 312 310 307 308 307 309 310 311 311 310 311 307 305 302 302 303 307 306 309 308
323 325 324 320 320 321 321 320 319 318 318 317 317 316 316 317 316 315 315 315 315 316 317 317 318 318 316 316 316 316 317 314 313 315 314 312 312 314 312 311 312 313 315 311 310 309 308 309 309 310 310 311 311 310 311 309 306 304 304 305 307 307 307
322 323 324 324 320 321 321 320 319 319 318 317 317 316 316 316 316 316 316 315 316 316 317 318 319 319 319 317 317 318 317 317 317 317 317 317 316 315 313 312 312 313 313 311 311 312 309 311 310 310 310 310 311 311 312 311 310 307 305 306 307 307 310
320 322 322 323 323 322 321 320 320 319 318 317 316 316 316 316 316 317 318 317 316 316 318 318 318 319 319 318 318 318 317 318 318 317 317 317 319 315 315 314 315 314 312 312 311 312 313 312 312 311 311 310 311 313 313 312 312 311 309 307 307 310 310
319 320 321 322 321 320 321 320 319 318 317 316 316 316 315 315 316 317 317 315 316 318 320 320 320 319 318 318 319 319 319 318 318 317 316 316 315 315 315 315 315 315 314 312 312 311 313 312 313 311 311 310 311 311 310 311 311 310 309 308 307 309 309
318 319 319 319 320 320 319 318 319 318 317 316 315 316 315 316 314 316 317 317 318 320 319 319 320 320 320 320 318 317 317 317 316 315 314 316 316 316 316 316 315 316 315 315 314 313 313 312 312 311 310 310 310 310 309 309 309 309 308 307 307 306 306
319 319 319 319 320 320 320 319 317 317 318 316 316 317 315 318 317 317 318 320 320 318 316 316 317 318 318 319 318 316 315 314 314 313 312 312 315 316 316 317 317 317 318 317 316 316 315 313 313 312 310 310 309 309 309 308 308 307 307 307 306 306 306
319 319 319 319 318 318 319 319 320 320 319 317 318 316 317 320 319 318 319 319 319 318 316 314 314 316 317 319 319 315 315 314 313 313 314 314 314 313 314 317 318 317 317 312 308 309 311 313 313 310 309 309 308 309 308 308 308 306 304 302 303 303 303
318 317 317 317 316 316 317 317 317 320 321 318 319 319 319 319 318 318 318 318 317 316 313 311 309 306 310 317 317 317 316 315 313 312 313 313 313 314 316 314 317 316 311 309 304 299 299 302 307 309 307 307 308 308 306 305 304 303 303 302 302 301 301
318 317 316 316 317 316 317 317 317 318 319 318 318 320 319 318 317 317 317 317 315 313 310 306 297 295 296 303 317 316 316 316 315 314 313 312 312 313 313 315 313 312 310 308 301 296 296 296 296 297 298 302 307 307 305 304 303 302 302 303 300 300 298
317 316 316 316 316 317 317 317 317 317 318 317 317 318 318 317 317 316 317 316 314 311 307 300 294 294 294 297 305 316 317 317 317 314 314 314 314 313 314 316 314 316 311 307 305 302 299 296 295 294 294 295 295 296 300 304 303 301 300 301 301 299 299
316 316 316 316 315 316 315 315 316 316 316 317 317 317 317 317 316 316 316 315 313 310 306 295 294 294 294 293 294 305 318 316 317 314 314 313 313 313 314 316 315 315 314 313 309 303 301 299 296 296 296 296 295 294 292 293 297 303 303 301 300 298 298
316 316 316 315 314 313 313 312 313 314 315 315 315 315 314 314 314 314 314 313 312 309 306 297 293 294 294 292 291 297 313 313 312 312 311 310 310 310 314 314 311 308 308 308 306 304 302 300 300 301 300 300 300 299 296 295 296 297 300 302 301 299 298
315 315 315 315 313 313 312 313 313 312 313 314 313 312 307 312 312 312 313 313 310 309 307 294 292 292 292 293 292 295 311 312 310 308 306 306 307 309 312 309 306 304 302 300 300 304 303 303 302 303 301 300 298 295 295 296 297 298 299 300 299 297 296
314 314 314 313 313 313 312 312 311 311 311 313 312 311 312 312 312 312 313 312 309 307 299 290 291 292 293 293 292 304 311 309 307 306 305 305 306 308 308 306 303 300 298 297 295 295 300 304 303 302 300 298 295 292 292 294 293 295 296 295 295 294 294
312 312 312 312 311 310 311 312 312 314 314 313 313 313 313 312 312 312 312 310 308 305 301 291 290 292 292 292 297 309 310 308 306 304 303 304 305 307 306 303 301 298 297 295 293 293 297 301 303 302 301 299 297 294 293 294 292 291 291 291 292 292 291
309 310 310 310 310 310 311 312 314 314 314 313 312 312 312 312 312 313 312 310 309 307 303 292 290 291 292 291 300 308 308 306 304 303 302 301 302 303 305 305 303 298 296 294 292 294 296 300 301 302 302 300 297 295 294 296 297 294 292 291 290 290 290
310 310 310 311 311 312 311 311 310 310 310 310 309 308 309 311 310 309 308 309 311 307 302 295 291 290 291 289 296 306 308 305 304 302 301 300 298 298 298 300 301 298 296 294 292 294 295 298 299 299 299 298 296 294 293 295 295 294 294 295 294 293 293
304 307 309 309 310 311 310 308 307 308 308 307 308 306 306 310 309 307 306 308 309 307 304 299 293 290 289 288 294 304 307 305 303 302 301 300 297 294 294 293 293 290 291 291 292 292 293 294 296 296 295 294 291 291 291 294 295 294 294 294 293 293 293
305 308 308 307 307 308 307 306 307 307 307 306 305 306 304 306 307 306 307 307 307 303 305 300 293 290 291 290 291 302 306 305 304 303 301 299 297 295 293 292 291 291 290 291 291 291 291 291 292 293 291 291 291 290 291 290 291 295 293 293 293 293 295
306 309 309 307 306 306 307 307 306 306 304 304 305 303 302 304 305 305 305 307 307 305 307 303 296 290 292 293 294 298 305 302 302 303 301 299 297 295 293 290 290 290 290 290 290 290 290 290 290 291 289 289 288 288 289 291 290 291 291 292 291 290 289
302 305 306 306 305 305 304 304 305 305 303 302 304 304 303 304 303 302 302 303 305 306 305 300 295 294 291 291 290 292 295 299 297 305 302 299 297 294 292 290 291 291 290 290 290 289 289 289 290 288 288 288 288 289 290 289 288 290 289 289 289 289 290
299 299 300 302 304 304 304 305 305 304 303 302 302 301 302 302 301 301 301 300 304 305 304 300 294 293 292 291 291 291 293 295 298 302 302 299 296 293 291 290 290 289 290 290 290 289 289 289 287 288 288 288 288 289 289 289 288 291 288 286 288 289 290
Wind_Speed
6 6 7 6 5 6 7 7 6 6 7 6 6 4 4 4 4 4 4 4 4 4 6 5 5 4 5 4 4 3 4 4 4 6 4 4 4 1 2 4 3 4 4 6 6 5 8 6 3 4 1 1 2 3 4 5 6 6 5 5 6 6 5
7 7 6 6 6 6 6 5 6 5 5 5 6 5 5 5 4 4 4 6 4 3 5 6 4 5 4 4 4 6 4 4 3 2 3 2 3 2 3 3 3 4 5 4 4 6 6 8 2 2 2 2 3 3 4 4 4 5 5 4 5 6 6
8 7 7 7 6 6 7 6 6 6 5 6 5 4 4 4 4 5 6 7 5 5 5 5 5 5 5 5 4 4 5 5 4 3 3 3 2 2 3 5 4 4 5 6 4 6 4 4 8 6 3 3 5 2 3 4 4 3 4 6 6 6 5
10 9 8 6 6 7 7 6 7 6 6 6 6 6 5 4 5 5 6 5 5 5 7 5 4 4 5 6 5 6 6 6 5 5 6 5 4 5 4 5 7 7 6 6 8 5 4 5 6 4 3 2 3 5 2 4 5 6 6 5 6 6 5
10 9 9 8 8 8 7 7 6 6 6 6 5 6 6 6 6 6 5 6 6 6 6 6 6 6 6 6 6 6 5 5 5 6 6 7 6 6 6 4 3 4 6 7 6 6 7 7 8 8 6 3 2 0 2 2 4 7 6 6 5 6 6
9 9 8 8 7 8 7 7 7 7 6 6 5 6 4 5 6 7 7 7 7 6 5 6 5 6 6 6 6 5 5 5 4 6 6 5 6 7 6 6 6 6 5 3 6 6 5 6 7 7 4 3 5 3 2 3 2 3 4 6 6 5 6
9 8 7 8 7 7 8 8 8 7 7 7 5 4 4 6 6 6 6 6 5 7 7 6 6 6 6 6 5 6 5 4 5 6 6 5 6 6 6 7 6 6 3 3 4 7 7 7 6 8 8 3 4 6 3 2 4 5 3 4 5 5 4
8 7 7 6 7 8 8 8 7 7 7 5 6 6 6 6 5 6 7 7 7 7 7 6 6 6 6 6 5 5 5 4 5 6 6 6 7 7 6 6 6 6 4 4 6 6 5 5 8 7 8 9 4 3 4 2 2 4 5 3 4 5 5
6 6 6 5 6 8 8 8 8 7 6 6 5 6 5 6 6 6 5 5 5 6 6 6 5 5 4 5 4 4 4 3 5 6 5 6 6 5 5 4 6 5 5 4 4 3 4 6 6 6 5 7 10 5 3 4 3 2 4 4 2 3 6
5 5 6 6 7 7 7 8 7 7 7 7 6 5 6 5 5 5 5 5 6 6 6 6 6 6 5 6 6 5 5 4 5 4 5 6 4 4 5 5 4 4 3 3 5 5 4 4 4 4 6 6 6 10 5 3 2 3 1 2 4 1 4
5 5 5 6 6 7 7 7 7 8 7 6 6 6 6 5 4 5 6 6 7 6 6 6 6 5 5 5 5 5 4 4 4 4 4 4 4 4 4 5 4 4 4 6 5 4 5 6 7 5 4 6 6 9 5 6 3 0 2 1 1 2 1
5 5 5 5 6 7 7 8 8 8 7 6 7 6 6 6 5 4 5 5 4 5 5 6 6 6 5 5 4 5 4 4 4 4 2 5 4 5 5 5 4 5 5 5 5 6 6 6 6 6 6 7 4 7 9 6 6 0 2 2 1 3 4
4 7 5 6 7 7 7 8 8 7 7 6 5 6 6 6 5 5 4 5 5 5 6 6 7 6 5 5 5 5 4 5 4 4 3 2 4 4 4 5 5 5 5 6 6 6 5 5 6 7 7 7 6 6 7 6 6 4 0 4 3 4 5
6 5 7 6 7 7 7 7 7 7 6 5 5 6 6 6 5 5 5 5 5 4 5 5 5 5 5 4 5 5 4 4 5 3 3 4 4 4 4 5 5 5 5 6 5 5 6 5 6 6 6 6 6 6 8 5 6 4 1 1 3 2 5
5 5 5 6 6 6 7 7 6 7 6 5 5 6 6 5 5 5 5 5 4 4 4 4 4 5 6 4 3 3 5 4 4 3 4 4 5 5 4 5 5 4 4 4 4 4 4 6 6 6 7 6 5 4 4 5 4 4 4 0 2 0 2
6 6 5 4 6 5 6 6 6 7 6 5 4 5 5 6 5 5 4 5 4 4 5 4 4 6 5 4 4 4 4 4 4 5 4 3 3 4 5 4 4 3 3 4 4 4 5 6 3 4 6 6 6 3 2 4 4 2 4 2 1 1 1
6 6 7 7 4 4 5 6 6 6 5 5 5 4 5 5 6 5 5 5 5 4 4 4 4 5 5 4 6 6 5 6 6 5 5 5 5 5 4 4 3 3 3 4 5 5 6 6 6 5 5 3 7 6 5 3 3 3 1 3 1 2 1
3 5 5 7 9 6 3 5 5 6 5 5 4 4 4 5 5 5 5 5 5 5 5 5 5 6 7 6 6 6 5 5 4 5 4 3 4 4 5 5 3 3 3 4 3 5 6 7 5 7 6 5 4 4 4 5 4 4 4 4 2 1 1
4 6 8 9 8 7 7 4 3 4 6 5 4 4 6 4 5 5 5 4 5 6 7 8 7 5 5 6 7 5 5 4 3 3 3 4 3 3 4 4 2 1 3 2 3 4 6 6 6 6 6 6 5 6 6 5 4 4 5 3 2 1 2
5 7 9 6 3 4 5 5 2 3 4 6 5 4 5 5 3 5 7 7 7 7 8 8 8 8 7 5 3 4 5 4 3 3 3 4 3 4 4 3 3 3 2 0 2 5 5 5 6 5 3 4 5 6 6 5 5 6 5 4 3 2 1
6 5 6 4 3 3 1 1 1 3 2 6 5 4 6 7 6 7 6 7 7 7 7 7 7 6 5 6 4 1 4 4 3 3 3 3 4 3 3 2 3 3 1 1 2 5 5 5 6 6 3 4 5 6 5 5 5 5 5 3 3 3 4
5 5 7 5 3 1 1 2 4 3 3 2 6 4 5 9 8 8 6 6 6 6 7 6 5 5 4 4 5 2 4 3 4 4 4 4 3 3 3 3 1 2 5 8 10 9 8 6 6 6 4 4 4 6 5 4 5 5 3 3 2 2 5
7 7 7 6 5 5 6 6 5 5 4 2 3 6 8 7 8 8 7 5 4 5 5 4 5 8 6 4 4 3 4 4 4 4 4 4 4 3 4 3 3 9 10 10 12 12 13 13 10 7 5 5 4 5 4 4 3 3 3 4 2 4 6
5 6 7 7 7 7 6 6 6 7 2 2 4 7 9 8 7 7 7 7 6 5 5 4 6 9 6 5 6 5 5 4 4 4 4 4 4 4 3 3 5 7 9 7 10 12 12 12 12 11 11 9 6 5 5 6 4 3 2 3 2 4 5
5 2 4 6 4 4 4 5 7 3 1 3 4 4 7 7 7 7 7 7 7 6 5 4 8 8 7 7 5 5 5 5 4 4 3 3 3 3 4 4 4 4 5 6 7 8 9 11 12 11 11 10 10 10 6 5 4 4 3 5 5 3 4
6 5 3 4 4 4 3 4 4 4 3 4 5 5 4 6 5 5 7 8 7 5 4 4 8 9 7 6 4 1 4 4 4 3 1 1 2 3 3 5 5 5 6 9 7 6 6 7 8 11 12 12 10 10 10 11 8 4 5 6 6 3 2
7 6 4 4 3 3 2 3 3 1 3 3 5 4 3 4 4 4 5 7 7 5 4 3 4 6 6 7 5 2 0 3 3 5 5 5 4 4 4 5 7 6 4 4 4 6 6 6 5 5 6 5 6 7 10 10 11 12 8 5 6 4 2
8 7 6 5 4 4 4 5 3 2 1 4 6 6 2 0 3 4 5 5 6 6 5 6 6 7 7 6 4 2 3 7 6 5 5 5 5 6 7 7 7 7 5 4 3 4 6 6 6 6 5 5 4 4 5 5 6 5 5 6 6 6 4
7 7 7 7 7 6 6 5 5 3 2 4 5 5 5 3 3 4 5 6 6 5 4 3 4 4 6 5 4 3 4 7 7 6 6 6 6 6 7 8 8 7 6 5 5 8 5 4 5 6 6 5 4 4 4 3 5 3 5 6 6 5 5
3 6 6 6 6 4 5 5 4 6 6 5 6 6 6 5 4 5 5 5 6 5 4 3 3 4 4 4 3 3 6 7 7 7 5 5 6 6 6 7 8 7 6 5 4 8 7 8 5 5 6 5 4 4 3 2 3 6 7 7 6 6 7
4 3 0 4 3 2 3 3 4 5 6 7 7 7 7 7 5 5 6 6 7 7 5 4 6 4 4 3 2 4 7 6 6 7 6 4 5 5 5 10 9 8 7 4 7 11 10 8 5 5 4 5 5 4 2 0 2 2 3 6 5 3 3
4 3 6 3 4 5 4 4 3 2 3 4 4 4 6 7 5 4 4 5 7 7 5 4 5 4 4 3 3 3 7 7 7 6 7 6 4 5 4 5 9 9 8 8 12 11 12 10 7 6 6 7 6 4 1 1 2 1 1 0 0 1 2
2 5 6 1 3 6 5 4 4 4 4 3 5 4 6 6 5 5 4 6 5 5 6 3 3 4 2 2 1 3 6 7 7 6 6 7 6 4 4 5 6 9 11 12 12 12 12 13 9 6 7 7 6 3 1 1 1 2 1 1 2 1 3
6 4 3 4 1 2 1 2 4 5 5 5 4 5 5 6 7 6 6 5 6 4 5 5 2 3 2 1 2 5 4 5 6 7 7 6 6 7 5 4 4 7 11 11 12 12 12 12 10 7 6 5 2 1 1 2 2 4 2 3 3 4 4
8 5 4 4 4 3 1 2 2 4 3 4 6 3 3 6 7 7 6 6 6 6 6 9 6 2 2 3 4 4 4 4 7 8 7 6 5 5 6 5 4 6 11 12 12 12 12 11 10 7 6 7 5 4 2 1 2 3 3 3 2 2 3
8 7 9 9 4 3 3 4 2 1 4 3 3 2 5 6 6 6 5 6 5 6 6 6 11 7 6 7 6 7 5 3 8 10 9 8 7 7 5 5 4 8 11 11 11 11 11 10 8 5 8 7 5 5 3 3 3 3 4 3 2 5 7
8 6 7 8 10 7 5 3 1 3 3 1 1 2 1 1 3 2 5 3 3 5 5 6 7 10 8 9 9 7 6 5 8 9 9 8 8 8 7 6 6 10 11 11 10 10 8 7 6 7 7 8 8 7 5 4 5 4 3 6 6 6 6
Wind_Direction
152 147 145 146 140 136 114 113 111 108 110 116 118 102 90 88 90 79 110 120 114 102 100 94 88 79 74 59 68 79 76 97 116 129 155 187 137 125 61 64 60 68 92 110 142 132 128 120 30 359 3 23 74 88 93 99 101 100 96 81 88 86 81
136 138 137 134 130 122 107 89 92 98 95 97 110 116 102 89 86 81 76 121 112 96 94 88 81 78 82 80 68 66 71 65 75 107 115 162 108 143 99 55 63 83 76 90 108 111 128 122 106 93 73 346 13 45 86 97 105 110 108 103 75 74 77
132 132 130 131 125 110 110 111 101 87 85 77 79 91 101 96 79 70 70 97 115 107 94 100 92 78 66 60 58 65 69 72 55 74 105 109 105 138 136 142 128 107 89 89 98 107 88 97 142 156 169 140 106 70 82 105 120 115 110 100 93 86 82
138 136 134 127 119 120 122 117 105 106 98 102 98 90 96 93 81 71 75 86 97 105 103 91 79 76 69 75 70 65 62 63 51 54 50 52 80 74 81 133 148 147 157 141 148 152 139 131 116 125 127 134 130 126 174 139 126 124 116 108 106 102 102
143 143 143 141 141 135 131 122 119 105 101 99 95 93 87 89 86 77 69 70 76 83 90 98 96 92 86 75 66 68 63 57 55 59 54 46 47 63 67 77 99 136 124 138 152 142 137 144 140 146 148 139 94 130 142 99 115 126 126 121 117 114 108
141 142 141 142 147 135 132 128 124 122 112 100 113 115 107 95 93 80 75 73 69 72 85 88 85 78 77 73 72 67 60 55 61 65 60 58 66 72 72 53 63 62 88 109 128 132 126 126 136 138 155 147 145 143 145 139 125 90 116 124 121 116 119
142 141 144 146 145 135 137 137 134 135 133 139 133 126 130 108 99 104 93 86 85 83 87 89 90 90 88 88 85 80 72 68 62 58 58 58 62 63 61 60 57 70 63 95 123 131 145 139 144 154 155 142 133 151 158 118 136 109 46 88 111 119 111
141 142 148 149 140 140 141 136 134 135 139 140 129 136 113 105 106 99 102 97 91 89 95 97 97 97 97 95 93 89 76 67 62 58 47 56 58 56 52 62 67 60 69 89 120 151 167 170 159 170 152 139 134 133 133 95 92 92 133 60 106 111 120
133 137 144 140 140 141 141 134 137 135 130 128 126 114 111 112 112 113 112 113 103 100 101 103 104 97 93 93 87 85 76 49 64 57 56 68 70 70 70 57 57 46 53 84 104 125 159 161 167 152 143 142 138 120 95 105 104 112 139 116 36 112 131
124 141 146 143 143 136 128 130 130 129 124 124 123 116 117 118 121 120 115 113 111 113 108 108 108 109 105 100 101 95 90 83 80 80 76 80 83 79 71 71 78 60 35 64 64 65 72 94 114 132 146 157 153 132 139 113 148 133 183 132 128 229 141
133 136 131 139 133 119 121 121 120 121 129 132 127 128 123 124 126 121 121 124 129 125 125 121 115 111 107 109 112 111 119 104 91 72 67 81 70 62 50 37 36 43 20 50 48 56 65 85 105 129 158 152 160 133 137 128 124 277 165 344 97 144 159
130 125 129 125 120 118 123 125 126 130 126 125 128 127 121 124 122 124 122 124 121 127 125 122 122 122 125 120 116 119 115 106 105 96 87 88 86 79 59 47 34 31 19 31 29 45 56 62 62 62 69 96 93 117 125 126 112 303 136 118 36 129 143
116 132 130 123 115 120 125 125 126 125 134 131 133 130 130 128 135 135 133 129 126 122 119 130 134 139 130 128 131 125 134 114 109 122 125 80 95 86 76 59 41 45 28 30 21 24 38 58 76 74 81 88 90 96 100 95 106 102 193 153 152 146 151
86 109 123 112 114 118 124 125 130 137 123 133 134 129 131 138 140 141 135 130 131 131 123 133 134 125 120 132 141 144 129 123 128 136 97 75 73 75 74 68 52 38 43 42 29 24 35 34 38 65 71 83 94 105 110 113 116 124 46 136 130 156 133
58 76 104 108 108 120 125 129 136 128 131 145 135 134 137 141 140 142 143 143 143 134 126 123 115 98 107 110 84 84 121 110 91 82 94 85 78 96 95 78 50 35 39 58 36 39 44 31 81 93 88 93 86 70 116 109 141 130 154 320 68 349 126
38 45 64 91 109 112 126 130 135 131 133 146 141 142 146 145 148 148 148 152 146 135 129 125 101 111 105 103 95 74 83 97 82 60 49 75 113 114 95 94 74 59 47 48 35 28 42 44 40 84 107 109 101 96 75 110 119 118 147 203 193 137 197
45 41 48 35 54 106 131 135 138 129 137 146 149 157 151 153 152 152 149 151 149 138 125 121 106 126 121 93 70 77 82 75 72 66 69 63 49 47 61 46 28 70 75 59 46 35 38 59 55 54 41 40 100 95 91 88 111 127 146 122 276 201 208
54 48 47 52 29 18 74 124 131 132 133 155 165 151 162 153 150 153 149 147 151 135 145 134 112 98 93 102 96 82 71 70 72 97 99 80 62 73 79 93 75 38 21 75 39 61 66 63 54 58 49 39 67 100 94 97 104 101 113 139 187 319 345
83 57 37 48 39 43 24 27 101 127 145 164 177 155 167 162 157 161 146 105 97 90 76 68 64 79 93 100 104 105 104 100 112 108 107 88 85 96 116 123 105 59 64 72 121 98 89 90 70 61 58 53 52 47 55 60 71 81 91 99 103 62 354
83 75 83 64 51 44 48 34 355 162 155 170 174 166 172 156 112 91 102 111 102 96 91 83 81 77 70 60 70 110 105 108 93 91 106 121 128 133 141 147 151 144 113 41 164 115 109 102 98 86 92 92 74 74 70 60 69 76 83 85 55 66 46
104 92 92 100 83 57 8 268 5 327 188 168 175 161 174 94 94 99 97 104 113 105 100 104 110 117 130 127 103 120 154 148 141 139 139 149 146 137 119 141 163 130 129 3 147 112 112 104 90 79 50 98 100 94 91 84 75 81 82 78 82 67 34
81 89 88 78 38 57 292 319 2 353 7 204 174 155 110 117 111 111 107 107 118 118 110 113 123 129 127 106 104 189 159 149 157 158 145 149 140 108 86 87 92 116 94 86 77 79 72 80 100 92 53 73 85 102 99 94 104 97 90 84 55 47 70
113 112 108 94 76 40 14 352 334 345 10 342 104 104 106 109 119 123 121 109 108 104 96 102 119 123 117 141 143 180 142 151 147 137 141 133 109 115 141 149 113 101 96 85 84 82 80 78 80 97 112 92 96 99 106 97 87 114 102 88 105 96 83
139 148 157 134 139 150 173 181 200 238 287 144 131 124 125 129 131 133 126 128 112 102 112 120 122 109 114 151 167 167 153 148 145 147 143 136 134 153 156 141 119 117 101 89 85 89 91 93 94 89 82 83 89 112 110 90 87 113 111 98 88 85 106
138 163 156 144 158 149 171 194 186 215 197 138 126 129 128 133 132 130 127 129 128 121 125 143 130 129 141 149 155 167 144 143 147 156 162 154 160 146 157 142 146 135 120 122 116 97 93 100 103 101 97 91 84 72 80 121 133 80 103 108 82 80 103
142 154 127 110 129 154 193 192 174 175 177 158 135 126 125 125 139 141 134 128 123 123 126 183 153 136 146 134 114 134 154 151 147 152 162 166 174 158 136 129 109 97 111 111 103 106 109 97 97 105 101 86 73 76 67 57 59 114 138 106 113 82 114
145 152 156 165 145 137 140 214 194 181 133 107 98 85 93 122 131 127 121 125 121 120 129 182 156 144 132 102 77 79 50 123 98 88 81 75 76 105 142 121 102 90 91 95 104 114 113 113 117 100 84 87 91 73 64 64 66 62 68 112 121 112 355
141 145 149 150 142 142 175 196 166 124 143 127 107 96 68 339 143 123 123 120 126 137 154 168 178 161 131 117 102 66 125 100 103 92 82 74 81 92 105 101 101 105 97 74 47 109 125 131 120 108 104 95 94 94 91 88 89 90 87 89 100 118 130
145 152 157 154 156 171 179 170 146 158 134 137 134 148 175 181 188 147 140 132 131 142 147 172 174 135 116 114 81 102 115 109 100 93 77 79 83 91 99 102 103 98 91 84 60 77 102 129 117 119 115 116 103 91 83 47 33 74 117 128 134 146 156
139 151 155 147 145 159 168 179 177 164 151 163 164 161 171 178 192 152 140 142 140 143 153 191 161 127 126 102 95 105 105 111 109 98 100 96 100 103 107 109 110 105 91 78 69 77 93 105 125 131 132 138 118 88 59 19 60 69 86 93 108 128 154
30 345 229 143 154 171 182 180 177 171 158 168 168 166 160 166 174 168 157 157 154 148 164 169 173 165 127 142 131 109 128 120 117 113 98 84 85 84 103 119 117 112 110 111 89 75 74 83 92 138 136 105 83 78 59 132 105 49 100 109 120 146 164
104 65 316 207 153 159 179 182 187 150 165 164 174 156 153 156 169 169 161 148 150 143 153 169 179 164 162 154 146 117 127 129 126 130 122 104 74 85 80 85 105 114 115 114 93 90 85 84 83 88 103 100 93 80 342 324 126 75 28 16 322 342 315
92 173 211 190 152 160 179 167 164 174 179 180 181 165 157 165 164 178 156 145 146 148 150 163 178 175 167 135 174 126 124 139 143 148 138 126 111 75 81 84 80 100 103 96 94 94 92 94 96 95 92 97 103 85 282 8 127 165 184 190 267 260 266
21 27 72 108 119 62 271 193 187 174 186 185 196 177 153 164 165 175 166 158 144 149 150 135 116 112 90 89 71 110 119 154 158 147 137 133 138 132 113 93 92 102 100 97 95 94 95 95 99 99 103 114 136 191 235 46 356 18 9 338 336 351 340
357 351 7 46 45 48 64 135 159 248 141 168 186 216 143 160 170 169 169 159 157 156 149 147 137 125 121 73 69 93 111 126 163 143 135 139 131 120 132 136 129 123 110 103 101 103 103 104 103 99 113 129 130 84 67 31 355 5 9 2 3 11 8
359 359 351 344 8 4 353 10 359 38 115 101 92 106 160 160 158 161 166 170 163 155 151 146 147 139 132 106 90 77 101 99 154 151 146 155 152 139 130 133 143 125 109 108 107 109 108 106 93 112 130 123 120 108 112 68 44 30 11 10 36 38 58
346 353 1 2 351 327 303 323 22 14 355 73 133 82 77 114 102 152 181 189 181 173 160 145 147 137 129 117 106 105 96 102 119 146 147 145 138 143 142 152 146 125 110 106 104 100 99 95 103 97 73 59 46 40 45 41 27 18 36 35 50 70 75